Location: The Saddle
(36.8333°N, 80.3417°W)
Time: 21:48:36
(UTC-05:00)

Tiros 1 - Visible Passes

Search period start: 22 January 2022 00:00
Search period end: 01 February 2022 00:00
Orbit: 629 x 664 km, 48.4° (Epoch: 22 January)

Date Brightness Start Highest point End Pass type
(mag) Time Alt. Az. Time Alt. Az. Time Alt. Az.
22 Jan 10.2 04:11:39 11° ENE 04:11:39 11° ENE 04:11:56 10° ENE visible
22 Jan 7.4 05:49:19 36° NW 05:51:04 62° NNE 05:55:41 10° ESE visible
23 Jan 9.3 04:36:36 23° ENE 04:36:36 23° ENE 04:38:45 10° E visible
23 Jan 7.2 06:14:16 25° WNW 06:16:56 63° SW 06:21:33 10° SE visible
24 Jan 8.1 05:01:39 46° ENE 05:01:39 46° ENE 05:05:16 10° ESE visible
24 Jan 8.3 06:39:19 13° W 06:42:35 27° SW 06:46:30 10° S visible
25 Jan 7.1 05:26:46 68° SSW 05:26:46 68° SSW 05:31:13 10° SE visible
26 Jan 10.1 04:14:17 13° ESE 04:14:17 13° ESE 04:14:50 10° ESE visible
26 Jan 8.1 05:51:59 29° SW 05:52:13 30° SW 05:56:17 10° SSE visible
27 Jan 9.5 04:39:35 18° SE 04:39:35 18° SE 04:40:50 10° SE visible
27 Jan 9.2 06:17:16 12° WSW 06:17:41 12° SW 06:19:30 10° SSW visible
28 Jan 9.3 05:04:56 16° S 05:04:56 16° S 05:06:03 10° SSE visible
29 Jan 8.8 19:34:10 10° S 19:36:34 21° SSE 19:36:34 21° SSE visible
30 Jan 8.3 19:58:58 10° SW 20:01:58 36° SSW 20:01:58 36° SSW visible
31 Jan 8.6 18:43:58 10° S 18:47:39 22° SE 18:49:37 17° E visible
31 Jan 8.8 20:24:44 10° WSW 20:27:19 32° WSW 20:27:19 32° WSW visible
